• Em Portugal
  • Lista de países
  • Para 7 dias
  • Temperatura da água
  • Mapas de satélite
  • Mapa do tempo
  • Widgets de tempo
  • user-avatar
    Iniciar Sessão

    Previsão horária em Cobán

    Hoje, 23 Junho, Sábado

    Tempo Temperatura Precipitação Vento Pressão Humidade
    00:00 +18°C° 0 mm 1 m/s 654 mmHg 92%
    01:00 +18°C° 0,1 mm 1 m/s 654 mmHg 92%
    02:00 +18°C° 0,1 mm 1 m/s 654 mmHg 92%
    03:00 +18°C° 0,1 mm 1 m/s 653 mmHg 92%
    04:00 +18°C° 0 mm 1 m/s 653 mmHg 92%
    05:00 +18°C° 0 mm 1 m/s 653 mmHg 92%
    06:00 +18°C° 0 mm 1 m/s 653 mmHg 91%
    07:00 +21°C° 0 mm 1 m/s 654 mmHg 80%
    08:00 +22°C° 0 mm 0 m/s 655 mmHg 68%
    09:00 +25°C° 0 mm 0 m/s 656 mmHg 56%
    10:00 +28°C° 0,1 mm 1 m/s 656 mmHg 55%
    11:00 +28°C° 0,1 mm 1 m/s 656 mmHg 54%
    12:00 +29°C° 0,1 mm 1 m/s 656 mmHg 54%
    13:00 +29°C° 1,2 mm 1 m/s 656 mmHg 56%
    14:00 +29°C° 1,2 mm 1 m/s 655 mmHg 58%
    15:00 +29°C° 1,2 mm 1 m/s 655 mmHg 60%
    16:00 +27°C° 1,7 mm 1 m/s 654 mmHg 65%
    17:00 +25°C° 1,7 mm 1 m/s 654 mmHg 71%
    18:00 +24°C° 1,7 mm 1 m/s 653 mmHg 77%
    19:00 +23°C° 1,1 mm 1 m/s 653 mmHg 81%
    20:00 +21°C° 1,1 mm 1 m/s 654 mmHg 85%
    21:00 +20°C° 1,1 mm 1 m/s 654 mmHg 89%
    22:00 +20°C° 1,2 mm 1 m/s 654 mmHg 91%
    23:00 +18°C° 1,2 mm 0 m/s 654 mmHg 93%

    Amanhã, 24 Junho, Domingo

    Tempo Temperatura Precipitação Vento Pressão Humidade
    00:00 +17°C° 1,2 mm 0 m/s 654 mmHg 94%
    01:00 +17°C° 1,1 mm 0 m/s 654 mmHg 95%
    02:00 +17°C° 1,1 mm 0 m/s 653 mmHg 95%
    03:00 +17°C° 1,1 mm 0 m/s 653 mmHg 96%
    04:00 +17°C° 0,1 mm 0 m/s 653 mmHg 95%
    05:00 +16°C° 0,1 mm 0 m/s 653 mmHg 95%
    06:00 +16°C° 0,1 mm 0 m/s 653 mmHg 95%
    07:00 +19°C° 0 mm 0 m/s 654 mmHg 86%
    08:00 +21°C° 0 mm 0 m/s 655 mmHg 77%
    09:00 +23°C° 0 mm 0 m/s 656 mmHg 67%
    10:00 +27°C° 0 mm 1 m/s 656 mmHg 62%
    11:00 +28°C° 0 mm 1 m/s 656 mmHg 57%
    12:00 +29°C° 0 mm 1 m/s 656 mmHg 52%
    13:00 +29°C° 0,3 mm 1 m/s 655 mmHg 54%
    14:00 +28°C° 0,3 mm 1 m/s 654 mmHg 55%
    15:00 +28°C° 0,3 mm 1 m/s 654 mmHg 57%
    16:00 +27°C° 0,6 mm 1 m/s 654 mmHg 63%
    17:00 +25°C° 0,6 mm 1 m/s 653 mmHg 69%
    18:00 +24°C° 0,6 mm 1 m/s 653 mmHg 75%
    19:00 +23°C° 0,9 mm 1 m/s 653 mmHg 81%
    20:00 +21°C° 0,9 mm 1 m/s 654 mmHg 87%
    21:00 +20°C° 0,9 mm 1 m/s 654 mmHg 93%
    22:00 +19°C° 0,2 mm 1 m/s 654 mmHg 94%
    23:00 +17°C° 0,2 mm 0 m/s 654 mmHg 95%

    Depois de amanhã, 25 Junho, Segunda-feira

    Tempo Temperatura Precipitação Vento Pressão Humidade
    00:00 +17°C° 0,2 mm 0 m/s 654 mmHg 96%
    01:00 +17°C° 0 mm 0 m/s 654 mmHg 96%
    02:00 +16°C° 0 mm 0 m/s 653 mmHg 96%
    03:00 +16°C° 0 mm 0 m/s 653 mmHg 96%
    04:00 +16°C° 0,2 mm 0 m/s 653 mmHg 95%
    05:00 +18°C° 0,2 mm 1 m/s 653 mmHg 95%
    06:00 +18°C° 0,2 mm 1 m/s 653 mmHg 94%
    07:00 +18°C° 0 mm 0 m/s 654 mmHg 84%
    08:00 +21°C° 0 mm 0 m/s 655 mmHg 73%
    09:00 +24°C° 0 mm 0 m/s 656 mmHg 62%
    10:00 +27°C° 0,2 mm 1 m/s 656 mmHg 59%
    11:00 +28°C° 0,2 mm 1 m/s 656 mmHg 56%
    12:00 +29°C° 0,2 mm 2 m/s 656 mmHg 52%
    13:00 +28°C° 0,9 mm 2 m/s 655 mmHg 55%
    14:00 +28°C° 0,9 mm 2 m/s 655 mmHg 58%
    15:00 +28°C° 0,9 mm 2 m/s 654 mmHg 60%
    16:00 +26°C° 1,1 mm 1 m/s 654 mmHg 65%
    17:00 +25°C° 1,1 mm 1 m/s 654 mmHg 69%
    18:00 +24°C° 1,1 mm 1 m/s 654 mmHg 74%
    19:00 +22°C° 0,7 mm 1 m/s 654 mmHg 79%
    20:00 +21°C° 0,7 mm 1 m/s 654 mmHg 84%
    21:00 +19°C° 0,7 mm 1 m/s 654 mmHg 89%
    22:00 +19°C° 0 mm 1 m/s 654 mmHg 91%
    23:00 +18°C° 0 mm 1 m/s 654 mmHg 93%

    26 Junho, Terça-feira

    Tempo Temperatura Precipitação Vento Pressão Humidade
    00:00 +16°C° 0 mm 0 m/s 654 mmHg 94%
    01:00 +16°C° 0 mm 0 m/s 654 mmHg 94%
    02:00 +16°C° 0 mm 0 m/s 653 mmHg 95%
    03:00 +16°C° 0 mm 1 m/s 653 mmHg 95%
    04:00 +16°C° 0 mm 1 m/s 653 mmHg 94%
    05:00 +16°C° 0 mm 1 m/s 653 mmHg 94%
    06:00 +16°C° 0 mm 1 m/s 653 mmHg 93%
    07:00 +18°C° 0 mm 0 m/s 654 mmHg 84%
    08:00 +20°C° 0 mm 0 m/s 655 mmHg 74%
    09:00 +23°C° 0 mm 0 m/s 656 mmHg 64%
    10:00 +26°C° 0,1 mm 1 m/s 656 mmHg 61%
    11:00 +27°C° 0,1 mm 1 m/s 656 mmHg 57%
    12:00 +28°C° 0,1 mm 1 m/s 656 mmHg 54%
    13:00 +27°C° 1 mm 1 m/s 655 mmHg 60%
    14:00 +27°C° 1 mm 1 m/s 655 mmHg 66%
    15:00 +26°C° 1 mm 1 m/s 654 mmHg 72%
    16:00 +25°C° 1,8 mm 1 m/s 654 mmHg 76%
    17:00 +23°C° 1,8 mm 1 m/s 654 mmHg 80%
    18:00 +22°C° 1,8 mm 1 m/s 654 mmHg 84%
    19:00 +21°C° 1,2 mm 1 m/s 654 mmHg 86%
    20:00 +20°C° 1,2 mm 1 m/s 655 mmHg 89%
    21:00 +19°C° 1,2 mm 1 m/s 655 mmHg 92%
    22:00 +17°C° 0,4 mm 0 m/s 655 mmHg 93%
    23:00 +17°C° 0,4 mm 0 m/s 655 mmHg 94%

    27 Junho, Quarta-feira

    Tempo Temperatura Precipitação Vento Pressão Humidade
    00:00 +16°C° 0,4 mm 0 m/s 655 mmHg 95%
    01:00 +16°C° 0,5 mm 0 m/s 654 mmHg 96%
    02:00 +16°C° 0,5 mm 0 m/s 654 mmHg 96%
    03:00 +16°C° 0,5 mm 0 m/s 653 mmHg 96%
    04:00 +16°C° 0,1 mm 0 m/s 653 mmHg 96%
    05:00 +16°C° 0,1 mm 0 m/s 654 mmHg 96%
    06:00 +16°C° 0,1 mm 0 m/s 654 mmHg 96%
    07:00 +17°C° 0,2 mm 0 m/s 654 mmHg 92%
    08:00 +18°C° 0,2 mm 0 m/s 655 mmHg 88%
    09:00 +19°C° 0,2 mm 0 m/s 655 mmHg 85%
    10:00 +22°C° 0,2 mm 1 m/s 655 mmHg 79%
    11:00 +24°C° 0,2 mm 1 m/s 655 mmHg 73%
    12:00 +25°C° 0,2 mm 1 m/s 655 mmHg 67%
    13:00 +25°C° 0,8 mm 1 m/s 655 mmHg 72%
    14:00 +24°C° 0,8 mm 1 m/s 654 mmHg 76%
    15:00 +24°C° 0,8 mm 1 m/s 654 mmHg 80%
    16:00 +23°C° 1,2 mm 1 m/s 654 mmHg 84%
    17:00 +22°C° 1,2 mm 1 m/s 654 mmHg 88%
    18:00 +20°C° 1,2 mm 1 m/s 654 mmHg 93%
    19:00 +20°C° 1,5 mm 1 m/s 654 mmHg 94%
    20:00 +19°C° 1,5 mm 1 m/s 654 mmHg 96%
    21:00 +19°C° 1,5 mm 1 m/s 655 mmHg 97%
    22:00 +17°C° 2,8 mm 0 m/s 655 mmHg 97%
    23:00 +16°C° 2,8 mm 0 m/s 655 mmHg 98%

    28 Junho, Quinta-feira

    Tempo Temperatura Precipitação Vento Pressão Humidade
    00:00 +16°C° 2,8 mm 0 m/s 654 mmHg 98%
    01:00 +16°C° 1,1 mm 0 m/s 654 mmHg 98%
    02:00 +16°C° 1,1 mm 0 m/s 654 mmHg 98%
    03:00 +16°C° 1,1 mm 0 m/s 653 mmHg 98%
    04:00 +16°C° 0,2 mm 0 m/s 653 mmHg 98%
    05:00 +16°C° 0,2 mm 0 m/s 654 mmHg 98%
    06:00 +16°C° 0,2 mm 0 m/s 654 mmHg 98%
    07:00 +17°C° 0,1 mm 0 m/s 654 mmHg 94%
    08:00 +18°C° 0,1 mm 0 m/s 655 mmHg 89%
    09:00 +22°C° 0,1 mm 1 m/s 655 mmHg 84%
    10:00 +22°C° 0,2 mm 1 m/s 655 mmHg 81%
    11:00 +23°C° 0,2 mm 1 m/s 655 mmHg 77%
    12:00 +24°C° 0,2 mm 1 m/s 655 mmHg 73%
    13:00 +24°C° 0,7 mm 1 m/s 655 mmHg 76%
    14:00 +24°C° 0,7 mm 1 m/s 654 mmHg 80%
    15:00 +23°C° 0,7 mm 1 m/s 653 mmHg 83%
    16:00 +22°C° 0,9 mm 1 m/s 654 mmHg 87%
    17:00 +21°C° 0,9 mm 1 m/s 654 mmHg 90%
    18:00 +21°C° 0,9 mm 1 m/s 654 mmHg 94%
    19:00 +20°C° 1,3 mm 1 m/s 654 mmHg 94%
    20:00 +19°C° 1,3 mm 1 m/s 654 mmHg 95%
    21:00 +17°C° 1,3 mm 0 m/s 655 mmHg 96%
    22:00 +17°C° 1,2 mm 0 m/s 655 mmHg 97%
    23:00 +16°C° 1,2 mm 0 m/s 655 mmHg 97%
    Mostrar mais